SCP
0 0 0 0 0 0 0 0 0 0 0 0 0 0 0 0 0 0 0 0 0 0 0 0 0 0 0 0 0 0 0 0 0 0 0 0 0 0 0 0 0 0 0
0 0 0 0 0 0 0 0 0 0 0 0 0 0 0 0 0 0 0 0 0 0 0 0 0 0 0 0 0 0 0 0 0 0 0 0 0 0 0 0 0 0 0
0 0 0 0 0 0 0 0 0 0 0 0 0 0 0 0 0 0 0 0 0 0 0 0 0 0 0 0 0 0 0 0 0 0 0 0 0 0 0 0 0 0 0
0 0 0 0 0 0 0 0 0 0 0 0 0 0 0 0 0 0 0 0 0 0 0 0 0 0 0 0 0 0 0 0 0 0 0 0 0 0 0 0 0 0 0
0 0 0 0 0 0 0 0 0 0 0 0 0 0 0 0 0 0 0 0 0 0 0 0 0 0 0 0 0 0 0 0 0 0 0 0 0 0 0 0 0 0 0
0 0 0 0 0 0 0 0 0 0 0 0 0 0 0 0 0 0 0 0 0 0 0 0 0 0 0 0 0 0 0 0 0 0 0 0 0 0 0 0 0 0 0
0 0 0 0 0 0 0 0 0 0 0 0 0 0 0 0 0 0 0 0 0 0 0 0 0 0 0 0 0 0 0 0 0 0 0 0 0 0 0 0 0 0 0
0 0 0 0 0 0 0 0 0 0 0 0 0 0 0 0 0 0 0 0 0 0 0 0 0 0 0 0 0 0 0 0 0 0 0 0 0 0 0 0 0 0 0
0 0 0 0 0 0 0 0 0 0 0 0 0 0 0 0 0 0 0 0 0 0 0 0 0 0 0 0 0 0 0 0 0 0 0 0 0 0 0 0 0 0 0
0 0 0 0 0 0 0 0 0 0 0 0 0 0 0 0 0 0 0 0 0 0 0 0 0 0 0 0 0 0 0 0 0 0 0 0 0 0 0 0 0 0 0
0 0 0 0 0 0 0 0 0 0 0 0 0 0 0 0 0 0 0 0 0 0 0 0 0 0 0 0 0 0 0 0 0 0 0 0 0 0 0 0 0 0 0
0 0 0 0 0 0 0 0 0 0 0 0 0 0 0 0 0 0 0 0 0 0 0 0 0 0 0 0 0 0 0 0 0 0 0 0 0 0 0 0 0 0 0
0 0 0 0 0 0 0 0 0 0 0 0 0 0 0 0 0 0 0 0 0 0 0 0 0 0 0 0 0 0 0 0 0 0 0 0 0 0 0 0 0 0 0
0 0 0 0 0 0 0 0 0 0 0 0 0 0 0 0 0 0 0 0 0 0 0 0 0 0 0 0 0 0 0 0 0 0 0 0 0 0 0 0 0 0 0
0 0 0 0 0 0 0 0 0 0 0 0 0 0 0 0 0 0 0 0 0 0 0 0 0 0 0 0 0 0 0 0 0 0 0 0 0 0 0 0 0 0 0
0 0 0 0 0 0 0 0 0 0 0 0 0 0 0 0 0 0 0 0 0 0 0 0 0 0 0 0 0 0 0 0 0 0 0 0 0 0 0 0 0 0 0
0 0 0 0 0 0 0 0 0 0 0 0 0 0 0 0 0 0 0 0 0 0 0 0 0 0 0 0 0 0 0 0 0 0 0 0 0 0 0 0 0 0 0
0 0 0 0 0 0 0 0 0 0 0 0 0 0 0 0 0 0 0 0 0 0 0 0 0 0 0 0 0 0 0 0 0 0 0 0 0 0 0 0 0 0 0
0 0 0 0 0 0 0 0 0 0 0 0 0 0 0 0 0 0 0 0 0 0 0 0 0 0 0 0 0 0 0 0 0 0 0 0 0 0 0 0 0 0 0
0 0 0 0 0 0 0 0 0 0 0 0 0 0 0 0 0 0 0 0 0 0 0 0 0 0 0 0 0 0 0 0 0 0 0 0 0 0 0 0 0 0 0
0 0 0 0 0 0 0 0 0 0 0 0 0 0 0 0 0 0 0 0 0 0 0 0 0 0 0 0 0 0 0 0 0 0 0 0 0 0 0 0 0 0 0
0 0 0 0 0 0 0 0 0 0 0 0 0 0 0 0 0 0 0 0 0 0 0 0 0 0 0 0 0 0 0 0 0 0 0 0 0 0 0 0 0 0 0
0 0 0 0 0 0 0 0 0 0 0 0 0 0 0 0 0 0 0 0 -0 -0 0 0 0 0 0 0 0 0 0 0 0 0 0 0 0 0 0 0 0 0 0
0 0 0 0 0 0 0 0 0 0 0 0 0 0 0 0 0 0 0 0 0 -0 0 0 0 0 0 0 0 0 0 0 0 0 0 0 0 0 0 0 0 0 0
0 0 0 0 0 0 0 0 0 0 0 0 0 0 0 0 0 0 0 0 0 0 -0 -0 -0 0 0 0 0 0 0 0 0 0 0 0 0 0 0 0 0 0 0
0 0 0 0 0 0 0 0 0 0 0 0 0 0 0 0 0 0 0 0 0 0 0 0 -0 -0 -0 0 0 0 0 0 0 0 0 0 0 0 0 0 0 0 0
Wind_Speed_500mb
17 18 20 22 23 23 22 21 20 20 21 21 20 20 22 23 23 22 23 32 28 26 22 19 17 14 13 13 13 15 18 20 22 26 27 26 26 27 28 26 26 25 26
20 22 24 24 25 26 28 28 26 26 28 29 31 30 31 30 29 26 25 27 30 29 28 24 20 19 18 17 15 14 14 17 18 21 25 30 29 29 28 27 28 31 31
33 32 26 27 27 29 33 34 32 33 34 34 37 39 39 38 38 36 30 29 30 32 33 31 28 24 22 21 20 19 17 15 17 17 20 25 32 34 31 32 31 33 39
36 34 31 33 47 43 36 38 37 37 37 42 45 44 43 43 44 42 42 39 38 35 35 35 34 32 29 27 23 21 19 18 19 19 19 21 26 33 36 32 26 23 38
41 41 42 45 47 39 34 40 33 39 51 47 44 44 49 51 49 47 49 48 48 45 41 40 41 38 35 34 34 31 27 23 21 21 23 21 23 27 32 37 32 28 28
45 43 34 41 46 35 30 31 44 36 36 43 51 57 50 49 53 52 54 56 55 53 52 50 46 49 48 43 41 39 37 34 29 24 24 27 25 25 28 33 39 38 38
39 36 32 34 36 30 37 41 42 37 40 37 45 49 52 52 58 59 60 58 59 61 60 58 57 57 49 50 54 50 47 43 39 33 28 27 29 29 28 30 35 42 41
34 30 32 29 30 28 27 28 30 31 33 34 35 45 53 53 53 56 57 61 64 64 62 63 59 58 58 53 52 60 59 54 47 42 37 31 30 31 31 30 33 39 47
28 27 27 27 28 26 25 28 25 27 29 28 29 26 26 43 37 41 43 46 52 63 67 67 64 61 63 61 58 56 65 66 59 50 45 40 33 32 33 33 32 37 44
24 26 26 25 26 25 26 26 25 28 27 31 29 31 37 42 29 41 48 44 40 35 44 53 63 69 68 64 63 64 62 66 70 61 55 49 45 39 35 34 34 34 40
21 24 25 26 26 26 29 30 30 30 29 32 34 34 35 39 43 47 42 53 60 57 55 51 38 48 59 66 68 63 68 73 69 70 65 59 57 50 43 37 38 38 38
23 25 27 28 30 33 33 35 35 33 33 32 34 35 37 38 38 36 38 41 45 50 56 59 55 54 45 53 51 55 60 68 77 75 71 68 66 62 54 45 41 43 42
27 28 29 30 34 41 42 40 37 34 32 33 33 33 35 37 41 39 45 53 57 51 48 56 64 66 61 45 44 55 62 64 67 75 76 76 74 69 63 54 47 45 45
27 29 32 33 39 41 40 42 40 32 30 32 35 38 40 42 37 40 41 44 52 54 52 50 50 51 55 49 60 61 51 63 68 60 68 75 75 74 74 67 59 52 47
28 32 37 39 44 42 41 33 35 31 30 32 33 34 37 41 43 43 44 39 42 44 52 48 45 39 47 54 52 57 57 60 61 74 65 81 77 76 78 79 71 62 53
30 33 40 46 38 38 33 36 36 32 32 34 36 36 36 40 40 42 42 43 44 53 53 49 49 47 45 51 46 45 50 45 66 69 70 67 67 71 72 73 78 70 60
31 35 43 43 34 33 31 36 33 37 39 39 42 45 46 44 45 49 46 46 46 49 59 55 49 47 55 55 54 57 46 52 65 63 75 80 76 71 69 69 77 73 66
32 41 40 44 41 37 37 39 37 37 36 37 36 38 43 45 46 45 46 46 47 49 52 60 56 53 53 46 53 58 57 67 55 50 51 74 91 86 76 74 76 78 76
36 45 44 42 37 36 35 33 35 38 39 43 45 47 47 44 46 45 50 50 47 51 54 53 54 50 48 53 48 49 46 51 76 57 52 51 70 80 82 78 79 77 78
38 43 41 35 35 35 31 31 35 41 45 49 50 48 48 48 47 46 43 46 46 49 53 59 52 48 48 47 47 51 54 50 46 56 44 55 52 68 74 79 77 77 76
36 43 41 29 29 28 28 41 47 51 50 54 53 53 57 55 51 50 46 46 49 50 49 52 50 50 47 49 49 46 48 46 48 43 48 45 49 59 71 79 78 77 73
35 42 31 29 23 27 36 46 48 52 55 54 53 53 49 47 55 47 45 47 50 61 67 59 51 54 48 47 45 46 44 42 45 45 52 52 51 46 50 71 77 77 71
32 30 28 25 24 27 37 46 52 50 49 49 43 42 40 39 41 43 44 47 48 47 52 57 64 57 49 49 41 40 41 36 41 37 48 60 51 50 46 53 71 72 63
26 27 25 25 27 30 36 45 50 52 50 47 41 34 32 29 29 33 41 46 42 43 49 52 52 63 60 49 52 47 42 40 48 49 40 40 50 52 55 59 60 64 58
26 26 24 29 30 34 33 40 52 58 53 52 40 34 31 29 28 28 35 43 48 52 48 52 54 61 60 65 60 43 48 40 41 43 42 44 30 43 63 57 57 53 52
31 28 26 21 26 33 35 38 43 54 59 51 46 33 35 31 27 30 45 55 65 69 64 60 60 58 54 57 62 68 53 40 38 31 45 41 38 42 52 55 45 46 50
Wind_Direction_500mb
305 300 292 292 286 283 283 280 276 274 268 267 257 252 249 242 235 239 247 262 252 251 253 252 248 249 251 251 249 244 242 238 234 234 229 224 223 228 227 220 228 216 213
301 300 298 294 285 284 283 277 272 266 268 264 261 254 249 246 247 241 246 254 247 239 242 245 247 246 247 248 249 250 245 247 242 236 233 230 228 228 234 233 234 233 220
299 299 298 294 290 289 286 283 276 273 271 268 265 259 256 254 250 249 244 242 250 242 238 241 241 243 245 246 246 249 251 249 251 248 241 235 231 232 235 240 235 234 232
296 297 298 294 291 293 286 282 284 279 275 265 263 259 258 257 254 251 248 242 242 240 245 238 242 246 246 243 237 240 246 251 253 252 248 244 239 235 234 238 235 227 232
293 292 294 291 291 293 293 289 291 290 279 276 271 265 258 256 254 251 250 248 243 238 241 246 240 242 244 246 245 239 239 246 253 258 257 248 244 242 238 236 236 229 228
293 294 297 293 293 294 294 292 285 284 283 287 282 270 267 259 251 250 252 249 247 246 244 238 245 243 240 244 246 248 246 245 249 254 259 259 250 245 242 237 234 231 238
297 302 302 305 304 304 291 287 286 287 282 281 287 280 274 269 263 255 253 252 250 246 244 244 243 241 244 247 244 243 246 249 248 249 253 258 260 252 246 241 235 231 234
301 307 309 313 309 310 310 308 301 295 284 281 282 279 277 274 262 256 256 254 250 244 246 242 241 241 239 241 245 243 242 246 247 249 249 253 257 259 253 247 239 232 228
313 318 321 320 318 321 315 314 310 305 298 285 276 275 281 270 285 255 252 252 254 249 245 247 247 242 240 241 241 243 242 241 244 244 248 250 250 253 257 254 246 237 231
325 328 329 327 325 319 317 312 309 303 299 292 284 271 267 264 278 274 260 265 268 267 261 255 250 247 246 242 241 239 242 240 239 242 244 248 251 251 251 256 255 245 237
323 320 319 321 319 317 307 307 304 296 291 286 283 280 271 268 271 270 281 276 270 263 266 264 263 257 246 246 241 239 239 239 239 235 241 245 249 251 250 253 259 255 247
314 311 310 310 313 313 308 302 297 294 291 280 271 270 271 271 269 271 277 276 281 266 260 261 267 259 258 254 251 244 242 243 239 239 240 243 244 245 245 251 256 257 252
313 307 312 314 310 304 303 298 293 290 290 285 276 272 268 268 264 266 268 274 276 274 272 261 262 254 253 262 255 253 244 240 246 242 242 243 236 237 239 242 247 252 252
319 317 318 318 316 308 302 296 300 283 283 287 285 280 272 269 270 268 266 272 276 274 270 274 268 262 262 261 256 258 251 245 247 242 232 229 232 237 238 237 242 244 251
314 314 319 314 316 312 302 289 299 290 284 285 282 279 278 276 273 271 267 264 266 273 273 271 273 271 258 261 253 254 252 247 245 243 239 232 235 237 238 236 237 239 246
316 324 319 318 317 314 310 307 299 288 284 283 283 281 277 275 274 271 269 267 264 268 273 270 269 267 264 262 263 269 243 242 237 234 236 230 230 233 236 237 231 235 242
315 320 317 325 312 306 309 315 307 304 295 283 280 279 275 274 272 270 267 267 268 266 269 273 267 267 267 267 264 262 272 251 246 240 233 232 234 235 235 234 228 233 240
307 308 319 317 311 318 316 317 310 305 300 298 293 283 285 287 278 265 262 267 269 268 265 270 267 263 266 265 266 259 258 261 237 222 242 240 240 240 237 234 231 231 237
325 334 319 327 325 327 323 315 307 303 301 292 289 286 287 283 276 272 273 271 266 268 265 262 271 268 265 260 268 265 259 263 258 225 228 243 231 233 232 233 232 231 233
322 326 328 328 333 333 336 329 316 310 303 293 296 291 290 279 275 271 267 270 271 267 265 263 261 266 259 260 260 261 258 255 260 242 238 242 241 234 232 230 230 228 228
321 322 330 333 325 336 344 339 331 323 313 306 300 297 291 286 275 267 264 268 267 262 260 263 256 260 259 254 254 257 253 253 251 244 237 241 234 237 234 225 225 224 227
316 324 330 337 345 353 348 347 336 328 321 315 307 306 299 289 285 285 276 278 270 266 263 260 257 252 254 253 250 255 253 249 250 238 236 236 232 230 229 224 219 219 223
323 325 341 342 343 344 342 345 341 336 340 333 323 317 310 299 286 283 282 284 276 272 265 264 254 251 250 246 247 251 249 252 249 237 235 238 235 232 222 213 216 219 222
346 345 346 351 341 338 343 350 348 350 355 348 337 337 326 318 305 288 288 284 278 272 267 264 257 249 247 246 242 246 246 251 246 244 232 237 226 223 213 208 220 217 220
358 353 355 345 338 344 346 356 356 356 357 355 349 336 334 329 312 302 294 287 283 280 271 266 260 252 242 240 236 240 243 245 248 245 234 232 238 219 213 214 211 213 220
4 360 352 340 335 339 348 350 358 358 359 356 359 335 327 331 325 309 298 295 290 289 283 271 263 260 252 244 235 229 236 242 241 256 226 225 228 210 209 211 201 210 211
Wind_Speed_850mb
17 18 20 22 23 23 22 21 20 20 21 21 20 20 22 23 23 22 23 32 28 26 22 19 17 14 13 13 13 15 18 20 22 26 27 26 26 27 28 26 26 25 26
20 22 24 24 25 26 28 28 26 26 28 29 31 30 31 30 29 26 25 27 30 29 28 24 20 19 18 17 15 14 14 17 18 21 25 30 29 29 28 27 28 31 31
33 32 26 27 27 29 33 34 32 33 34 34 37 39 39 38 38 36 30 29 30 32 33 31 28 24 22 21 20 19 17 15 17 17 20 25 32 34 31 32 31 33 39
36 34 31 33 47 43 36 38 37 37 37 42 45 44 43 43 44 42 42 39 38 35 35 35 34 32 29 27 23 21 19 18 19 19 19 21 26 33 36 32 26 23 38
41 41 42 45 47 39 34 40 33 39 51 47 44 44 49 51 49 47 49 48 48 45 41 40 41 38 35 34 34 31 27 23 21 21 23 21 23 27 32 37 32 28 28
45 43 34 41 46 35 30 31 44 36 36 43 51 57 50 49 53 52 54 56 55 53 52 50 46 49 48 43 41 39 37 34 29 24 24 27 25 25 28 33 39 38 38
39 36 32 34 36 30 37 41 42 37 40 37 45 49 52 52 58 59 60 58 59 61 60 58 57 57 49 50 54 50 47 43 39 33 28 27 29 29 28 30 35 42 41
34 30 32 29 30 28 27 28 30 31 33 34 35 45 53 53 53 56 57 61 64 64 62 63 59 58 58 53 52 60 59 54 47 42 37 31 30 31 31 30 33 39 47
28 27 27 27 28 26 25 28 25 27 29 28 29 26 26 43 37 41 43 46 52 63 67 67 64 61 63 61 58 56 65 66 59 50 45 40 33 32 33 33 32 37 44
24 26 26 25 26 25 26 26 25 28 27 31 29 31 37 42 29 41 48 44 40 35 44 53 63 69 68 64 63 64 62 66 70 61 55 49 45 39 35 34 34 34 40
21 24 25 26 26 26 29 30 30 30 29 32 34 34 35 39 43 47 42 53 60 57 55 51 38 48 59 66 68 63 68 73 69 70 65 59 57 50 43 37 38 38 38
23 25 27 28 30 33 33 35 35 33 33 32 34 35 37 38 38 36 38 41 45 50 56 59 55 54 45 53 51 55 60 68 77 75 71 68 66 62 54 45 41 43 42
27 28 29 30 34 41 42 40 37 34 32 33 33 33 35 37 41 39 45 53 57 51 48 56 64 66 61 45 44 55 62 64 67 75 76 76 74 69 63 54 47 45 45
27 29 32 33 39 41 40 42 40 32 30 32 35 38 40 42 37 40 41 44 52 54 52 50 50 51 55 49 60 61 51 63 68 60 68 75 75 74 74 67 59 52 47
28 32 37 39 44 42 41 33 35 31 30 32 33 34 37 41 43 43 44 39 42 44 52 48 45 39 47 54 52 57 57 60 61 74 65 81 77 76 78 79 71 62 53
30 33 40 46 38 38 33 36 36 32 32 34 36 36 36 40 40 42 42 43 44 53 53 49 49 47 45 51 46 45 50 45 66 69 70 67 67 71 72 73 78 70 60
31 35 43 43 34 33 31 36 33 37 39 39 42 45 46 44 45 49 46 46 46 49 59 55 49 47 55 55 54 57 46 52 65 63 75 80 76 71 69 69 77 73 66
32 41 40 44 41 37 37 39 37 37 36 37 36 38 43 45 46 45 46 46 47 49 52 60 56 53 53 46 53 58 57 67 55 50 51 74 91 86 76 74 76 78 76
36 45 44 42 37 36 35 33 35 38 39 43 45 47 47 44 46 45 50 50 47 51 54 53 54 50 48 53 48 49 46 51 76 57 52 51 70 80 82 78 79 77 78
38 43 41 35 35 35 31 31 35 41 45 49 50 48 48 48 47 46 43 46 46 49 53 59 52 48 48 47 47 51 54 50 46 56 44 55 52 68 74 79 77 77 76
36 43 41 29 29 28 28 41 47 51 50 54 53 53 57 55 51 50 46 46 49 50 49 52 50 50 47 49 49 46 48 46 48 43 48 45 49 59 71 79 78 77 73
35 42 31 29 23 27 36 46 48 52 55 54 53 53 49 47 55 47 45 47 50 61 67 59 51 54 48 47 45 46 44 42 45 45 52 52 51 46 50 71 77 77 71
32 30 28 25 24 27 37 46 52 50 49 49 43 42 40 39 41 43 44 47 48 47 52 57 64 57 49 49 41 40 41 36 41 37 48 60 51 50 46 53 71 72 63
26 27 25 25 27 30 36 45 50 52 50 47 41 34 32 29 29 33 41 46 42 43 49 52 52 63 60 49 52 47 42 40 48 49 40 40 50 52 55 59 60 64 58
26 26 24 29 30 34 33 40 52 58 53 52 40 34 31 29 28 28 35 43 48 52 48 52 54 61 60 65 60 43 48 40 41 43 42 44 30 43 63 57 57 53 52
31 28 26 21 26 33 35 38 43 54 59 51 46 33 35 31 27 30 45 55 65 69 64 60 60 58 54 57 62 68 53 40 38 31 45 41 38 42 52 55 45 46 50
Wind_Direction_850mb
305 300 292 292 286 283 283 280 276 274 268 267 257 252 249 242 235 239 247 262 252 251 253 252 248 249 251 251 249 244 242 238 234 234 229 224 223 228 227 220 228 216 213
301 300 298 294 285 284 283 277 272 266 268 264 261 254 249 246 247 241 246 254 247 239 242 245 247 246 247 248 249 250 245 247 242 236 233 230 228 228 234 233 234 233 220
299 299 298 294 290 289 286 283 276 273 271 268 265 259 256 254 250 249 244 242 250 242 238 241 241 243 245 246 246 249 251 249 251 248 241 235 231 232 235 240 235 234 232
296 297 298 294 291 293 286 282 284 279 275 265 263 259 258 257 254 251 248 242 242 240 245 238 242 246 246 243 237 240 246 251 253 252 248 244 239 235 234 238 235 227 232
293 292 294 291 291 293 293 289 291 290 279 276 271 265 258 256 254 251 250 248 243 238 241 246 240 242 244 246 245 239 239 246 253 258 257 248 244 242 238 236 236 229 228
293 294 297 293 293 294 294 292 285 284 283 287 282 270 267 259 251 250 252 249 247 246 244 238 245 243 240 244 246 248 246 245 249 254 259 259 250 245 242 237 234 231 238
297 302 302 305 304 304 291 287 286 287 282 281 287 280 274 269 263 255 253 252 250 246 244 244 243 241 244 247 244 243 246 249 248 249 253 258 260 252 246 241 235 231 234
301 307 309 313 309 310 310 308 301 295 284 281 282 279 277 274 262 256 256 254 250 244 246 242 241 241 239 241 245 243 242 246 247 249 249 253 257 259 253 247 239 232 228
313 318 321 320 318 321 315 314 310 305 298 285 276 275 281 270 285 255 252 252 254 249 245 247 247 242 240 241 241 243 242 241 244 244 248 250 250 253 257 254 246 237 231
325 328 329 327 325 319 317 312 309 303 299 292 284 271 267 264 278 274 260 265 268 267 261 255 250 247 246 242 241 239 242 240 239 242 244 248 251 251 251 256 255 245 237
323 320 319 321 319 317 307 307 304 296 291 286 283 280 271 268 271 270 281 276 270 263 266 264 263 257 246 246 241 239 239 239 239 235 241 245 249 251 250 253 259 255 247
314 311 310 310 313 313 308 302 297 294 291 280 271 270 271 271 269 271 277 276 281 266 260 261 267 259 258 254 251 244 242 243 239 239 240 243 244 245 245 251 256 257 252
313 307 312 314 310 304 303 298 293 290 290 285 276 272 268 268 264 266 268 274 276 274 272 261 262 254 253 262 255 253 244 240 246 242 242 243 236 237 239 242 247 252 252
319 317 318 318 316 308 302 296 300 283 283 287 285 280 272 269 270 268 266 272 276 274 270 274 268 262 262 261 256 258 251 245 247 242 232 229 232 237 238 237 242 244 251
314 314 319 314 316 312 302 289 299 290 284 285 282 279 278 276 273 271 267 264 266 273 273 271 273 271 258 261 253 254 252 247 245 243 239 232 235 237 238 236 237 239 246
316 324 319 318 317 314 310 307 299 288 284 283 283 281 277 275 274 271 269 267 264 268 273 270 269 267 264 262 263 269 243 242 237 234 236 230 230 233 236 237 231 235 242
315 320 317 325 312 306 309 315 307 304 295 283 280 279 275 274 272 270 267 267 268 266 269 273 267 267 267 267 264 262 272 251 246 240 233 232 234 235 235 234 228 233 240
307 308 319 317 311 318 316 317 310 305 300 298 293 283 285 287 278 265 262 267 269 268 265 270 267 263 266 265 266 259 258 261 237 222 242 240 240 240 237 234 231 231 237
325 334 319 327 325 327 323 315 307 303 301 292 289 286 287 283 276 272 273 271 266 268 265 262 271 268 265 260 268 265 259 263 258 225 228 243 231 233 232 233 232 231 233
322 326 328 328 333 333 336 329 316 310 303 293 296 291 290 279 275 271 267 270 271 267 265 263 261 266 259 260 260 261 258 255 260 242 238 242 241 234 232 230 230 228 228
321 322 330 333 325 336 344 339 331 323 313 306 300 297 291 286 275 267 264 268 267 262 260 263 256 260 259 254 254 257 253 253 251 244 237 241 234 237 234 225 225 224 227
316 324 330 337 345 353 348 347 336 328 321 315 307 306 299 289 285 285 276 278 270 266 263 260 257 252 254 253 250 255 253 249 250 238 236 236 232 230 229 224 219 219 223
323 325 341 342 343 344 342 345 341 336 340 333 323 317 310 299 286 283 282 284 276 272 265 264 254 251 250 246 247 251 249 252 249 237 235 238 235 232 222 213 216 219 222
346 345 346 351 341 338 343 350 348 350 355 348 337 337 326 318 305 288 288 284 278 272 267 264 257 249 247 246 242 246 246 251 246 244 232 237 226 223 213 208 220 217 220
358 353 355 345 338 344 346 356 356 356 357 355 349 336 334 329 312 302 294 287 283 280 271 266 260 252 242 240 236 240 243 245 248 245 234 232 238 219 213 214 211 213 220
4 360 352 340 335 339 348 350 358 358 359 356 359 335 327 331 325 309 298 295 290 289 283 271 263 260 252 244 235 229 236 242 241 256 226 225 228 210 209 211 201 210 211